User: anonymous   Login
Location: ?????????
(38.0736°N, 23.2119°E)
Time: 22:33:31
(UTC+00:00)
Language:

Okean O Rocket - Orbit

View from above orbital plane
View from above orbital plane
View from above satellite
View from above satellite

Ground track
Ground track

The orbit data is extracted from the following two-line orbital elements,

1 25861U 99039B   24168.89186214  .00000977  00000-0  13569-3 0  9992
2 25861  98.0882 214.8570 0016179 136.5324 223.7166 14.80120352343490
Epoch (UTC): 16 June 2024 21:24:16
Eccentricity: 0.0016179
inclination: 98.0882°
perigee height: 617 km
apogee height: 640 km
right ascension of ascending node: 214.8570°
argument of perigee: 136.5324°
revolutions per day: 14.80120352
mean anomaly at epoch: 223.7166°
orbit number at epoch: 34349

The dashed part of the orbit path shows where the satellite is in the earth's shadow,  

DLR